Starlink 30116

operational
NORAD ID: 57465 Int'l Des: 2023-107 Owner: SPXS Country: US Constellation: starlink
LEOCIRCULAR

About Starlink 30116

Description loading...

Live Position

Loading 3D Globe...

Upcoming Passes

Altitude History

Altitude vs Time

uPlot chart will show altitude changes over time

Two-Line Element Set

1 57465U 23107J 25307.98330742 .00000789 00000-0 73505-4 0 9991
2 57465 43.0043 302.0424 0001247 267.9896 92.0804 15.02538104126202
Epoch: Nov 3, 2025 • Age: 26 hours

Current Status

Altitude 563.1 km
Velocity 7.59 km/s
Sub-Earth Point 43.06°N, 36.57°W
Launch Date Jul 28, 2023
Age 2.2 years
Type internet

Technical Details

Classification Payload
Mass 730.00 kg
Dry Mass 700.00 kg
Total Mass 730.00 kg
Length 0.30 m
Diameter 4.10 m
Span 29.00 m
Shape Box + pan
Manufacturer SPXS
Bus Type Starlink V2M
Phase Status In Orbit
Owner/State SPXS/US

Large Constellations

Loading constellations...